Theta_e
290 287 289 291 292 293 292 292 290 288 289 287 286 287 292 290 286 286 291 292 288 291 292 294 293 294 294 295 295 297 298 298 297 295 295 296 297 297 297 297 297 297 297 296 296 295 295 294 294 294 294 294 294 294 294 294 294 293 293 294 294 294 295 294 294 294 294 294 294 294 294 294 294 294 294 294 294 294 294 294 295 294 294 295 294 295 296
290 287 288 290 292 289 289 291 291 290 289 288 289 291 293 292 290 293 293 291 291 294 294 295 295 296 297 297 297 297 296 296 296 296 297 297 297 296 297 297 297 297 296 295 295 295 294 294 293 293 294 294 293 293 293 293 293 293 293 293 293 294 294 294 294 293 293 293 293 293 293 293 292 292 293 293 292 293 293 293 293 293 293 293 294 294 294
286 286 286 288 289 289 288 289 290 290 290 290 291 291 292 293 291 293 290 290 290 296 297 297 297 297 296 295 294 295 296 297 296 297 297 297 297 297 297 297 296 295 295 294 293 293 293 293 293 293 293 293 293 293 293 292 292 292 292 293 293 293 293 293 293 292 292 292 292 292 292 292 291 291 291 291 291 291 292 291 292 292 292 292 293 293 293
284 285 285 286 288 288 287 286 287 289 288 287 289 289 292 290 288 291 289 287 289 294 294 295 294 294 294 294 295 295 296 296 296 297 297 297 297 297 296 296 295 294 294 293 293 293 293 293 292 292 292 292 292 292 292 292 292 291 292 292 292 292 292 292 292 291 291 291 291 291 291 290 290 290 290 289 290 290 290 289 290 291 291 291 292 292 292
283 281 284 285 286 285 284 284 288 290 290 291 292 292 293 294 294 289 286 288 295 294 295 295 292 293 294 295 296 296 297 297 297 297 297 298 297 297 296 295 295 294 294 294 294 293 293 292 292 292 292 292 292 291 291 291 291 291 291 291 292 291 291 291 291 290 290 290 290 290 289 289 289 288 288 289 288 288 288 289 290 290 290 290 290 291 291
281 279 282 285 283 277 279 291 294 293 290 290 289 289 291 293 294 292 294 295 296 296 296 295 294 292 293 295 297 299 298 297 295 296 297 297 297 296 296 295 294 294 294 294 293 293 292 292 291 291 291 291 291 291 290 291 290 290 291 291 291 290 290 290 290 289 289 288 288 289 288 288 288 287 288 287 288 288 288 288 288 288 288 289 289 290 290
280 279 281 281 276 279 291 291 296 295 294 293 292 293 293 293 294 295 294 294 293 296 297 297 297 296 296 296 296 296 297 299 297 296 295 295 295 295 294 294 294 293 293 293 292 292 291 291 291 291 291 290 290 290 290 290 290 290 290 290 290 289 289 289 288 288 288 287 287 287 287 287 286 286 287 287 287 287 287 287 287 287 287 287 288 288 288
282 280 282 276 278 287 290 292 288 292 294 293 292 291 294 294 294 295 293 295 296 296 296 297 297 296 295 294 294 296 295 298 298 296 295 295 294 294 294 293 293 293 293 292 292 291 290 290 290 290 289 289 289 289 289 289 289 289 289 289 288 288 287 288 287 287 287 286 286 286 286 286 286 286 286 286 286 286 286 287 287 287 287 287 287 287 287
281 281 282 282 287 286 288 289 288 289 288 288 289 285 289 294 294 294 294 295 296 295 295 295 293 292 293 294 296 293 292 294 296 297 296 295 294 294 294 294 293 293 293 292 291 290 290 289 289 288 288 288 288 288 288 288 288 288 288 287 287 287 286 286 286 286 286 285 284 284 285 284 284 284 284 285 285 286 285 285 285 286 286 286 286 286 286
287 283 280 281 281 278 285 293 293 294 295 295 295 291 289 296 296 296 295 294 295 296 293 293 291 293 292 292 295 295 292 292 292 293 294 294 294 293 292 292 291 291 291 290 290 289 288 287 287 287 287 287 288 287 287 287 287 287 287 286 286 286 286 286 285 285 285 284 283 283 283 283 283 284 284 284 285 285 284 284 284 285 285 286 286 286 286
284 283 280 280 278 282 289 291 292 295 295 296 295 289 285 295 295 296 295 295 295 294 293 292 291 292 289 291 297 295 291 290 292 291 291 292 292 291 291 291 290 290 290 289 288 288 287 286 286 286 286 286 287 286 286 286 286 286 285 285 284 284 284 285 285 284 284 283 282 282 282 282 282 282 283 283 284 284 284 284 284 285 285 285 285 285 286
285 284 282 280 284 284 290 293 291 293 294 297 292 282 283 295 293 295 294 295 295 294 295 293 292 292 290 293 298 294 291 291 292 291 290 290 290 289 290 290 290 289 288 287 287 286 285 284 285 285 286 286 285 285 285 285 285 284 283 283 284 284 284 284 284 283 283 282 281 281 280 281 281 282 282 283 283 283 283 283 284 284 284 284 283 284 285
286 285 284 286 286 289 290 290 290 291 296 294 285 281 290 293 294 293 294 294 295 295 293 293 291 295 296 296 294 292 291 290 290 291 291 291 290 289 288 287 287 287 287 286 285 284 284 284 284 284 284 285 284 284 284 284 283 282 282 282 282 282 283 282 282 281 281 281 280 280 280 280 281 281 282 282 282 282 281 282 283 282 282 282 283 283 285
285 285 283 284 288 292 290 287 291 293 292 284 284 293 290 294 292 292 294 294 295 295 293 293 296 294 288 291 292 290 290 290 289 289 288 288 287 287 287 286 287 286 285 285 284 283 283 282 283 282 282 282 282 282 282 281 281 281 281 281 281 281 280 280 280 279 279 279 279 279 279 280 280 280 281 281 281 281 282 282 281 281 281 282 283 283 284
286 285 283 283 279 288 291 291 289 290 287 290 294 290 287 289 290 291 292 294 294 294 293 294 292 288 290 290 290 290 289 289 288 288 288 287 286 286 286 284 284 285 284 283 282 281 281 281 280 279 279 279 279 280 279 280 279 279 279 279 279 278 278 278 278 278 278 278 278 278 278 279 279 279 280 280 280 281 281 281 281 281 281 282 282 282 283
282 283 280 282 289 289 293 294 289 291 294 294 292 295 292 289 289 291 292 292 293 294 295 292 289 290 289 290 289 289 289 289 288 288 287 286 285 284 284 283 282 283 282 281 281 280 280 279 278 277 276 276 276 276 277 278 277 277 277 277 277 277 277 277 277 277 277 276 277 277 278 278 278 278 279 280 280 280 281 281 281 281 281 282 282 282 282
287 286 288 291 290 291 294 296 296 296 297 293 292 293 295 292 290 290 292 292 291 292 293 292 290 288 289 289 289 288 288 287 287 286 286 285 285 283 282 280 279 280 279 279 279 278 278 277 276 275 274 273 273 273 275 275 275 275 276 276 276 276 276 276 275 276 276 276 276 277 278 278 278 278 278 279 279 280 280 280 280 280 280 281 281 282 282
291 288 288 291 288 291 292 289 290 290 292 289 290 292 294 292 293 290 292 293 290 291 291 290 289 289 289 288 288 288 287 287 286 285 283 282 281 281 280 278 277 277 278 277 277 276 275 275 274 273 272 272 270 272 273 273 274 275 275 275 274 274 274 274 274 274 274 275 276 277 277 278 278 278 278 278 278 279 279 279 280 280 280 281 281 281 282
289 286 293 289 291 292 291 293 289 287 287 290 289 290 291 292 291 289 290 291 290 290 290 290 290 289 289 288 288 287 286 285 284 284 282 281 280 279 277 276 275 276 275 275 274 273 273 273 272 271 270 270 270 271 271 273 274 275 274 273 273 273 273 273 273 274 274 274 274 275 276 277 278 278 278 279 278 278 279 279 279 280 280 280 281 281 281
287 288 292 291 288 284 285 288 290 291 291 288 287 287 288 288 289 289 289 289 289 290 290 291 290 289 289 288 287 286 285 285 284 283 280 278 276 275 275 274 274 273 272 272 271 271 271 271 270 269 268 269 270 271 272 274 274 273 272 272 271 271 271 272 272 273 272 273 273 274 274 275 275 276 277 278 278 278 278 278 279 279 279 280 280 280 281
287 288 286 285 288 290 288 285 287 291 292 290 286 285 286 287 287 287 288 290 290 290 291 291 289 287 288 287 287 285 285 284 283 280 278 277 276 274 273 272 272 272 270 269 269 268 269 269 267 267 267 269 270 272 273 273 272 270 270 270 270 270 271 271 271 272 272 272 272 272 273 273 274 275 275 276 276 277 278 280 280 279 279 279 280 281 281
285 287 288 285 286 286 291 289 288 287 288 288 287 286 286 287 287 287 286 285 286 288 290 290 289 287 287 287 286 284 284 283 280 277 276 274 273 272 272 271 270 268 268 267 267 266 267 267 266 266 267 269 271 272 270 269 270 269 269 269 269 269 270 270 270 271 271 271 271 272 272 272 273 274 277 278 278 277 277 279 281 281 282 280 281 282 281
285 290 291 289 291 290 292 293 292 290 288 288 287 287 287 287 288 287 286 285 285 285 285 288 289 287 286 285 285 283 282 279 277 276 274 272 271 271 270 268 267 266 266 266 265 264 265 266 265 266 267 270 269 267 268 268 269 269 269 268 269 269 269 269 269 269 270 270 271 271 271 272 272 273 273 275 278 278 279 279 280 280 281 282 283 283 283
288 287 288 289 288 289 289 284 286 288 287 288 288 288 287 287 287 286 287 287 286 283 282 282 285 286 284 283 282 279 276 274 273 272 271 271 271 269 268 267 266 264 264 264 264 263 264 265 265 267 267 267 265 266 266 268 268 268 267 268 268 268 268 268 268 269 269 269 270 270 271 272 272 272 272 272 273 277 278 278 279 280 281 281 282 283 283
288 286 285 286 287 285 282 282 284 285 286 287 288 287 287 286 286 286 286 286 286 284 282 280 278 281 281 280 279 276 274 272 271 270 269 269 268 267 266 264 263 263 263 264 263 263 264 265 266 265 263 263 264 264 266 266 266 266 267 267 266 266 266 266 267 268 268 268 269 269 269 270 270 271 271 271 271 272 274 277 278 279 280 281 282 282 283
287 283 281 280 282 282 282 285 285 284 284 285 285 285 284 283 283 283 282 282 282 281 282 278 276 275 276 275 275 273 271 269 268 268 268 267 266 265 263 262 263 263 263 263 263 263 264 264 263 262 261 262 263 264 264 265 265 265 264 264 263 264 265 265 265 266 267 267 267 268 268 269 269 269 270 271 270 271 271 272 274 277 280 281 281 282 283
283 283 283 285 285 285 284 287 290 286 284 283 283 281 279 278 275 275 273 274 274 275 275 274 273 272 270 270 269 269 269 267 267 267 266 265 264 263 262 262 262 261 261 261 262 263 263 261 261 260 260 261 263 263 264 264 263 262 262 262 262 263 264 264 264 265 265 266 266 266 267 267 268 268 268 269 270 270 271 271 272 273 274 277 280 281 281
284 283 286 286 286 287 287 286 283 282 282 280 279 276 274 273 273 273 272 271 270 268 268 267 267 267 267 267 267 266 265 265 265 265 264 263 263 262 261 260 261 261 261 261 262 262 260 260 259 259 259 262 263 263 263 262 261 260 260 261 261 262 262 263 263 264 264 265 266 266 266 266 267 267 268 269 269 270 271 272 272 273 274 276 278 279 280
283 282 281 279 278 277 278 279 280 279 277 276 275 273 273 274 273 273 273 272 269 267 266 265 265 266 266 265 265 265 264 264 263 263 263 262 261 261 261 260 260 260 260 260 260 260 259 259 259 258 259 262 262 262 261 260 259 259 260 260 261 261 262 262 263 263 264 264 264 265 266 266 267 267 268 268 269 270 270 271 271 272 273 275 276 277 279
282 278 278 279 277 278 280 280 280 278 275 273 273 271 273 276 274 273 273 269 267 267 266 264 263 263 263 263 263 263 263 262 262 262 261 260 260 260 260 260 259 259 259 259 258 258 258 258 258 258 259 261 260 259 259 259 259 259 259 259 260 261 261 262 262 262 263 263 263 264 264 265 266 267 267 267 268 268 269 269 270 271 272 273 275 275 274
279 278 277 277 276 276 279 281 278 275 274 272 273 272 272 273 275 274 271 268 267 266 264 262 262 260 260 260 261 260 260 260 260 260 260 260 259 259 259 259 259 260 260 258 257 257 257 257 258 259 260 260 258 258 258 258 259 259 260 260 261 261 262 262 262 262 262 263 263 263 263 264 265 265 265 266 266 267 267 268 269 270 271 272 273 273 274
276 274 273 275 274 275 275 275 275 274 273 272 271 271 272 272 274 275 272 267 267 266 262 261 260 259 259 258 258 257 258 258 258 258 258 258 258 258 257 257 256 256 256 256 256 257 257 257 256 257 256 257 257 258 258 258 259 259 259 260 260 260 261 261 262 262 262 263 263 263 263 263 263 264 264 264 265 265 265 266 267 268 270 271 272 272 274
275 272 273 273 270 270 272 274 274 274 272 270 271 274 275 275 277 277 274 270 266 263 261 261 260 258 257 257 256 256 255 256 256 256 256 256 257 256 257 256 256 255 255 256 257 257 257 257 258 258 256 257 257 257 257 257 258 259 260 260 260 260 261 261 262 262 262 262 262 262 263 263 263 263 263 264 264 265 265 266 267 268 269 270 270 271 273
280 281 283 282 279 279 278 277 275 275 275 273 273 274 275 275 274 274 271 267 265 262 261 260 258 257 256 255 255 255 255 256 256 256 255 255 255 255 255 256 255 254 255 255 256 258 259 259 257 257 257 257 258 258 258 258 259 259 259 259 260 260 260 261 262 262 262 262 262 263 263 263 263 263 263 264 264 264 265 266 267 267 268 269 270 271 273
284 285 286 286 284 284 284 284 281 277 276 274 272 272 273 273 270 270 268 266 264 263 261 259 256 256 255 254 254 254 256 257 258 256 255 255 254 254 254 254 252 253 253 255 256 258 258 255 255 255 256 257 258 258 258 258 257 258 259 259 260 260 261 261 261 261 261 262 262 262 262 262 263 264 264 264 264 265 265 266 266 267 267 268 269 271 272
282 282 283 284 284 283 283 284 284 280 277 276 275 274 272 271 269 267 264 266 265 262 259 257 256 255 254 254 255 255 255 256 255 254 254 254 254 254 253 251 252 253 253 254 257 254 253 255 257 258 259 259 258 257 256 257 258 259 259 260 260 261 261 261 261 262 262 262 262 262 263 263 263 263 264 264 264 265 265 265 266 267 268 268 269 270 271
279 280 282 283 284 283 282 283 283 281 278 277 277 274 271 268 267 266 264 262 260 259 257 256 255 254 254 255 256 255 255 255 255 255 255 255 254 252 252 251 252 253 255 256 257 256 255 256 257 258 258 258 258 257 257 258 259 260 260 260 260 260 261 261 261 261 261 262 262 262 262 262 262 262 263 263 263 264 265 265 266 267 267 268 269 269 270
277 277 278 280 280 279 279 280 279 279 278 275 273 272 271 269 265 262 261 259 258 258 257 256 255 256 255 255 254 254 254 254 253 253 252 251 252 251 251 254 255 256 257 258 256 256 256 257 257 257 257 257 257 256 257 258 259 260 260 260 260 260 260 260 260 261 261 261 262 261 261 261 261 261 261 262 262 263 263 264 265 266 266 267 268 269 270
274 274 274 274 271 270 272 270 267 272 274 275 273 268 264 263 261 259 258 258 258 257 256 255 255 253 253 253 253 253 252 251 251 250 250 250 250 252 255 256 257 257 257 257 256 256 257 257 258 257 257 257 256 256 257 259 259 260 260 259 259 259 260 260 260 260 260 261 261 261 261 261 261 260 261 261 261 262 263 263 264 265 265 266 267 268 270
275 275 273 272 270 270 268 269 268 270 270 272 270 265 261 259 258 258 257 256 255 256 255 254 254 254 253 253 253 253 252 250 250 250 250 250 251 251 252 252 251 251 254 255 256 256 257 257 257 257 257 256 256 258 259 259 259 259 259 259 259 259 259 260 260 260 260 260 260 260 260 260 260 260 260 260 261 261 261 262 262 263 264 265 266 267 267
273 273 268 266 268 266 266 267 266 263 262 264 265 263 259 259 258 257 256 255 255 255 255 255 255 255 254 254 254 253 251 250 250 250 249 250 251 254 257 257 256 253 253 255 255 256 257 257 256 257 256 257 257 258 258 259 259 258 258 258 259 259 259 259 259 259 259 259 259 259 259 259 259 259 260 260 260 260 260 261 261 262 262 263 264 264 264
268 265 262 263 263 263 262 261 259 258 259 259 259 258 259 259 258 258 256 255 254 253 254 255 255 255 254 253 252 250 249 249 249 248 249 252 255 256 257 257 255 254 255 255 256 256 256 255 255 256 256 257 258 258 258 258 258 257 257 258 258 258 258 258 259 259 259 259 259 259 259 259 259 259 259 259 259 259 259 260 260 260 260 261 262 262 262
261 261 261 261 260 259 258 258 259 259 256 256 256 257 258 258 258 257 255 255 254 254 254 254 254 253 252 251 251 250 250 248 248 248 248 250 250 253 256 257 255 254 255 255 256 256 256 256 256 256 256 257 257 258 258 258 257 256 257 257 257 258 258 258 258 258 258 258 258 258 258 258 258 258 258 258 259 259 259 259 259 259 259 260 260 261 261
259 259 259 260 258 257 257 257 257 256 254 255 256 257 257 257 256 255 255 254 254 254 254 254 253 253 251 251 252 253 252 250 251 251 252 254 253 251 250 253 254 254 254 255 256 256 256 256 256 255 256 257 257 257 257 257 256 256 256 256 256 257 257 257 257 257 257 258 257 257 257 258 258 258 258 258 258 258 258 259 259 259 259 259 259 259 259
257 257 257 257 256 256 256 257 256 256 255 255 255 256 256 256 255 255 255 254 254 254 254 254 253 253 252 252 253 255 254 254 253 253 255 255 255 256 254 252 254 254 254 254 256 256 256 255 255 256 256 256 257 257 257 255 255 255 255 255 255 256 256 256 256 256 257 257 257 257 257 257 258 258 258 258 258 258 258 258 258 258 258 258 258 258 259
255 254 254 254 255 255 255 256 255 254 253 254 254 254 254 255 254 254 255 255 254 254 254 254 254 253 253 252 251 249 248 250 250 252 254 255 256 256 255 253 254 254 254 254 255 255 255 255 255 255 256 256 256 256 255 254 254 254 254 254 254 255 255 256 256 256 256 256 257 257 257 257 257 257 257 257 257 257 258 258 258 258 258 258 258 258 258
253 253 253 254 253 253 253 253 253 254 254 254 253 252 252 253 253 254 254 254 254 254 254 254 254 254 253 251 252 253 253 252 252 251 250 251 251 252 254 253 253 252 253 254 254 255 255 255 255 255 255 255 255 255 254 253 253 253 253 253 254 255 255 255 255 255 255 256 256 256 256 256 257 257 257 257 257 257 257 257 257 257 257 258 258 258 258
254 253 253 252 252 252 252 252 253 253 254 255 255 252 252 252 252 251 251 252 251 252 252 252 252 251 250 250 250 251 253 256 256 254 252 250 251 251 252 251 252 252 253 253 253 254 254 254 254 254 254 254 254 254 253 253 253 253 253 253 253 254 254 254 254 255 255 255 256 255 255 256 256 256 256 256 256 256 257 257 256 257 257 257 257 257 257
253 252 252 252 252 252 252 253 253 254 255 255 252 252 252 251 251 250 250 251 251 251 251 250 250 249 248 248 249 250 249 249 253 255 252 250 252 251 251 250 251 251 252 253 252 252 253 253 253 253 253 253 253 253 252 252 252 253 253 253 253 254 254 254 254 254 255 255 255 255 255 255 255 255 255 255 256 256 256 256 256 256 256 256 256 257 257
252 252 252 252 253 253 253 254 255 256 254 253 252 252 251 252 251 251 251 251 252 251 251 250 251 250 249 250 250 249 248 249 249 249 250 249 248 248 250 250 250 251 252 252 251 252 252 252 252 251 252 252 252 252 252 252 252 252 253 253 253 253 253 253 254 254 254 254 254 254 254 254 254 254 254 255 255 255 255 255 255 255 255 255 256 256 256
252 252 253 253 254 254 254 254 255 254 253 253 252 252 252 253 252 251 251 251 252 251 251 251 250 250 249 249 249 248 248 248 248 249 250 250 249 250 250 250 250 251 251 251 251 251 251 250 249 250 251 252 252 251 252 252 252 252 252 252 252 252 253 253 253 253 253 253 253 253 253 253 253 253 253 254 254 254 254 254 254 254 254 254 254 254 255
251 251 251 251 251 251 251 252 252 253 252 252 252 252 253 252 251 250 250 250 252 252 252 251 251 251 249 249 250 249 249 249 249 249 250 250 250 250 250 250 250 250 250 249 249 249 249 250 250 251 251 251 251 251 251 252 252 252 252 252 252 252 252 252 253 253 253 253 253 252 252 252 252 252 252 252 252 252 253 253 253 253 253 253 253 253 253
Wind_Speed
5 3 4 7 7 8 8 11 11 13 14 13 14 15 13 11 11 14 13 11 14 10 10 10 11 14 15 16 18 18 13 9 7 7 8 9 9 8 7 6 6 7 6 4 4 3 3 4 5 3 2 2 2 3 4 4 3 4 4 4 4 4 5 5 6 5 5 5 5 6 6 6 6 7 6 6 6 6 6 6 5 6 6 6 7 7 7
5 2 3 3 8 5 4 9 13 13 13 15 20 17 14 14 14 14 4 12 17 8 10 10 11 12 12 9 5 5 7 11 9 9 11 12 10 10 9 8 7 5 5 4 3 2 2 2 1 1 2 1 2 3 3 4 4 4 4 4 4 4 4 5 5 6 6 6 6 6 7 7 8 8 8 7 7 7 7 7 7 7 7 6 6 7 8
5 3 2 3 0 5 8 5 6 11 13 15 19 19 18 13 14 8 3 3 10 5 3 4 3 3 6 6 9 12 13 10 11 12 12 10 10 9 8 8 8 7 5 4 3 2 2 2 2 2 2 2 1 2 3 3 3 3 3 2 2 3 4 4 5 5 5 6 6 6 6 6 7 8 8 7 7 7 7 7 8 7 7 8 7 7 8
4 2 3 3 4 2 1 4 7 12 14 14 13 14 13 14 15 12 3 6 13 6 7 2 2 5 8 11 12 11 10 10 10 12 11 11 11 10 10 9 8 7 6 6 5 5 4 3 3 3 3 1 2 4 3 3 3 3 2 2 3 4 4 4 5 5 5 6 6 6 6 6 7 7 6 5 6 7 7 6 7 7 7 7 8 8 7
6 3 1 5 4 2 4 7 12 20 19 15 9 1 1 12 15 12 8 17 10 10 12 10 5 8 11 10 9 9 8 8 8 10 10 10 9 10 10 10 9 8 8 7 6 4 3 4 4 2 1 2 4 3 3 3 3 2 3 3 3 4 4 4 5 6 6 7 7 6 6 6 6 5 4 4 4 5 5 7 7 7 8 8 8 8 7
2 3 3 3 4 9 11 12 15 12 17 15 9 10 14 12 11 10 12 8 5 11 8 12 10 10 10 14 11 9 9 11 9 8 8 8 9 8 8 8 8 8 6 5 4 4 4 3 1 1 2 3 3 2 2 2 2 2 2 3 3 4 3 4 4 4 5 5 6 6 6 6 6 5 5 5 6 6 5 5 6 6 5 7 8 8 8
3 2 2 5 10 13 9 3 2 13 10 10 15 16 17 14 13 13 11 8 7 10 9 11 13 10 7 5 7 8 7 8 8 10 9 9 10 11 10 9 8 7 7 7 7 6 4 2 2 2 3 3 2 2 2 2 2 2 2 1 2 2 3 3 3 4 5 5 6 6 7 5 6 5 6 7 6 6 6 6 6 7 7 7 7 7 8
4 2 5 7 9 2 1 2 2 2 7 12 13 13 11 8 11 13 14 16 9 9 9 5 3 3 4 0 4 5 3 5 8 9 10 11 11 11 10 11 9 9 8 8 7 6 4 3 3 3 3 2 2 2 1 1 0 0 1 0 1 3 3 4 4 5 5 6 6 7 8 7 7 8 7 6 8 8 6 6 6 6 6 5 7 7 7
5 5 10 5 6 6 2 4 6 10 11 10 12 8 13 14 12 14 16 18 10 8 4 3 3 3 2 2 8 4 5 7 8 8 9 11 10 10 9 9 9 7 7 7 6 6 5 4 3 3 2 2 1 1 2 1 0 0 2 3 5 6 5 6 7 7 7 8 8 8 8 8 8 8 9 9 8 7 8 8 7 7 7 7 7 8 9
3 3 3 1 4 10 13 4 4 3 4 13 14 11 12 8 14 15 15 15 11 8 6 5 4 4 4 6 9 7 6 6 6 5 8 8 9 9 9 8 7 7 6 6 6 6 6 5 4 3 2 1 1 2 2 2 2 3 5 6 7 7 7 8 9 9 8 8 9 9 9 9 9 9 8 7 6 6 8 9 10 8 8 9 7 6 7
3 4 6 7 9 12 1 5 8 9 6 8 6 4 10 6 12 13 15 15 8 12 12 8 7 5 6 10 8 7 9 8 8 11 9 9 9 9 9 9 9 8 7 8 7 6 5 6 4 3 2 1 2 3 4 4 4 6 8 8 9 10 10 9 9 9 8 8 8 9 9 9 9 10 9 9 8 7 7 8 10 9 7 8 9 8 5
6 8 8 8 4 5 3 7 4 8 9 10 9 5 8 3 11 13 13 11 12 13 14 11 12 12 7 12 7 10 11 10 9 10 13 11 10 9 7 6 7 8 8 8 7 6 6 5 3 3 2 2 3 5 5 5 7 9 9 9 9 8 9 9 8 8 7 8 8 8 10 10 9 8 8 8 8 8 9 8 9 10 9 9 11 11 10
7 8 5 3 4 2 2 5 3 7 10 12 10 13 1 7 12 11 13 15 17 15 11 11 8 12 8 1 8 14 13 12 9 7 8 9 9 10 8 8 8 7 6 6 7 6 5 5 5 4 4 3 5 6 6 7 8 8 8 8 8 8 8 8 8 8 7 8 9 9 8 9 10 9 8 8 9 8 9 9 8 10 11 10 10 11 9
8 9 8 7 4 3 6 4 7 7 6 8 12 4 1 7 6 5 10 14 13 10 13 11 12 4 5 5 9 12 11 11 11 11 11 11 9 8 8 7 7 7 6 7 7 7 6 6 5 5 4 5 6 6 6 8 7 7 8 8 8 8 8 8 9 8 8 8 8 8 8 8 10 10 8 7 8 8 8 9 11 12 13 10 10 11 12
1 1 5 3 10 3 9 13 3 3 4 2 4 4 1 1 2 8 6 7 6 9 11 10 5 7 6 10 11 10 11 12 13 12 12 12 11 10 9 7 5 5 6 6 7 6 5 5 6 6 6 7 6 6 6 7 7 8 7 8 8 8 9 9 9 10 9 10 10 8 9 8 10 12 10 9 9 8 9 9 10 13 13 10 10 12 11
7 10 11 8 1 8 10 16 9 9 10 3 3 5 2 1 3 5 5 7 7 9 11 12 7 6 9 8 11 11 9 10 10 9 9 9 9 8 7 7 5 5 6 6 6 6 5 6 6 7 7 6 6 6 6 6 7 7 7 7 8 8 8 9 9 9 9 9 9 8 8 9 9 10 10 9 10 8 7 8 9 10 10 10 10 11 12
7 6 8 2 4 11 10 3 2 9 11 3 3 0 1 5 5 4 2 7 6 7 8 10 9 7 7 12 11 13 12 10 11 11 10 9 9 8 8 6 5 5 5 6 6 6 6 7 7 7 7 6 5 5 5 6 6 6 7 7 7 8 8 9 9 9 9 9 9 9 8 9 10 10 10 9 10 9 8 10 10 11 11 10 11 12 12
1 3 2 2 1 3 3 0 0 3 2 1 3 4 4 5 4 8 8 7 7 7 7 10 4 7 10 12 10 9 11 11 9 9 9 8 8 8 7 6 6 5 5 6 6 6 6 6 6 6 6 6 6 5 6 6 6 6 7 8 8 8 8 8 9 10 11 10 9 9 10 8 8 8 10 11 10 11 10 10 10 11 13 12 12 12 13
7 9 10 10 7 5 7 7 1 2 3 4 3 5 5 3 4 6 1 5 8 9 9 9 11 11 12 11 9 9 9 10 10 10 9 8 7 6 7 5 4 4 5 4 5 5 5 5 6 6 6 5 4 5 6 6 6 6 7 8 8 8 8 9 9 9 10 9 10 10 9 8 9 9 9 9 11 11 10 10 11 11 12 11 12 13 13
8 5 5 4 2 1 2 2 4 6 7 6 4 1 1 2 1 2 3 5 7 7 7 9 11 12 13 14 13 11 9 10 9 9 8 9 8 6 6 6 5 6 6 5 4 5 4 4 5 5 4 3 3 4 5 5 5 6 7 7 7 8 9 8 7 8 9 11 11 10 10 9 10 10 9 9 10 11 11 10 11 13 12 12 13 13 13
2 7 6 2 2 2 5 6 7 7 5 5 3 1 2 3 5 5 4 1 5 9 9 10 10 12 10 8 13 12 9 9 8 8 8 7 7 7 6 5 6 5 4 4 4 4 3 3 4 3 3 3 3 4 4 5 6 6 6 7 7 8 8 7 8 8 8 9 9 10 11 11 10 10 10 11 12 14 14 11 11 12 13 15 15 14 13
5 8 6 5 2 4 6 10 13 11 6 4 5 3 4 6 8 7 8 4 2 2 2 8 12 14 12 10 10 10 9 9 9 9 8 7 8 7 6 6 6 6 5 4 3 2 1 2 2 3 3 3 3 5 6 5 6 6 7 7 7 7 7 7 7 8 8 9 9 9 10 11 12 13 13 17 15 14 16 20 23 23 21 18 17 16 16
7 8 3 4 6 5 3 3 2 8 8 8 9 11 10 7 5 7 10 9 4 5 3 3 7 11 13 13 10 10 8 8 7 7 9 8 7 7 6 6 5 5 3 3 2 0 1 2 3 3 3 3 4 6 5 6 6 6 7 7 7 6 7 7 8 10 10 9 9 9 10 10 11 13 15 14 16 20 22 24 27 28 26 28 30 30 22
3 3 2 2 2 6 3 5 4 1 4 7 9 3 1 6 8 8 8 11 15 8 4 4 2 10 9 10 11 12 8 7 8 8 7 7 8 7 6 5 5 4 3 2 1 1 1 1 2 3 2 3 4 5 6 5 6 6 7 6 7 8 8 9 10 9 9 10 10 10 10 10 10 11 12 15 17 16 18 19 22 26 29 29 28 27 30
5 2 1 0 2 2 1 1 2 0 3 4 6 7 8 8 7 5 6 3 3 15 15 9 5 6 11 10 8 10 10 8 7 8 8 8 7 6 6 6 4 3 2 2 1 1 1 2 1 2 2 3 4 4 5 6 6 6 6 6 8 9 9 9 9 10 9 10 10 10 11 11 11 11 11 13 15 18 18 17 18 20 24 28 28 25 25
2 2 2 2 2 1 1 1 2 5 6 7 5 4 3 3 5 6 3 2 5 1 7 12 11 6 6 9 8 8 9 9 9 8 7 6 6 5 5 4 4 2 3 2 2 2 2 1 1 2 2 3 3 4 5 6 6 7 8 8 8 8 8 9 10 9 9 9 10 10 10 11 11 12 12 12 13 15 16 18 19 15 14 17 20 23 25
2 4 6 1 2 1 2 4 5 3 7 2 2 4 4 5 6 5 6 6 5 4 5 4 7 8 7 6 9 7 9 9 8 6 5 6 6 5 4 3 3 2 2 2 2 2 1 1 2 2 3 4 3 4 5 7 8 8 8 8 7 9 13 11 8 9 9 9 10 10 11 11 11 12 12 13 13 14 14 16 16 18 18 15 14 17 18
6 6 6 8 7 4 4 6 2 3 3 3 5 7 5 6 7 8 8 8 8 7 5 5 9 14 13 6 8 9 8 8 7 6 6 5 5 4 3 3 3 3 3 3 3 1 0 1 2 2 3 4 4 4 6 7 7 7 7 7 7 7 7 8 8 8 9 9 9 10 11 11 12 12 13 13 14 14 15 15 16 17 17 16 14 14 23
9 5 3 2 2 1 2 3 5 5 4 3 4 5 9 10 8 9 9 6 7 7 6 5 3 4 6 7 6 8 8 7 7 8 7 6 6 5 4 3 3 3 3 3 2 0 1 2 2 3 4 4 4 4 6 6 6 6 7 7 7 7 7 7 8 9 9 10 10 11 12 13 13 13 13 13 13 13 14 15 16 15 16 16 16 16 15
4 2 5 6 2 1 2 4 7 6 6 6 9 8 8 11 12 11 8 7 8 7 6 6 6 5 4 7 5 7 8 8 8 7 7 6 6 4 4 3 3 3 3 2 1 1 1 2 2 3 4 3 3 5 6 5 6 6 7 8 7 7 8 8 9 10 10 10 10 13 12 11 11 12 13 13 13 13 14 15 16 16 16 16 15 15 15
5 3 3 3 1 2 7 8 2 3 4 4 5 6 6 4 4 6 7 7 6 5 7 6 6 8 8 9 7 5 5 6 7 7 6 6 5 4 4 4 4 4 4 3 1 1 2 2 3 3 3 3 4 5 5 5 6 6 6 6 6 10 13 15 12 10 10 10 11 10 11 11 11 12 13 13 14 13 14 14 15 15 15 15 14 14 14
3 2 2 4 2 3 4 1 4 7 8 6 7 10 12 13 14 16 12 12 11 13 11 11 14 10 7 7 7 6 6 6 6 6 6 5 5 4 3 3 3 3 2 2 2 2 2 3 3 5 2 5 5 5 4 4 5 5 6 7 7 8 9 13 10 10 10 10 10 11 11 11 12 11 12 13 13 14 15 15 16 15 15 15 15 14 14
6 3 4 5 3 3 6 6 8 10 11 13 18 15 12 13 9 7 10 11 11 11 11 14 9 10 9 8 8 7 7 6 6 5 6 5 5 4 3 3 3 3 3 3 3 3 3 4 4 2 4 4 4 5 3 3 4 5 6 6 7 8 8 9 10 10 10 10 10 10 10 11 12 12 13 14 14 14 14 15 16 16 16 16 15 15 15
14 14 14 13 14 13 14 15 13 12 11 13 9 8 8 10 10 7 9 10 10 11 12 15 12 10 9 10 9 9 10 9 7 7 7 6 5 4 4 3 2 3 3 3 3 3 3 3 2 2 4 4 4 4 4 4 5 6 6 6 7 7 8 8 9 8 9 10 10 11 12 12 12 12 13 13 14 14 15 16 16 16 16 16 16 15 18
16 17 17 16 14 16 16 15 13 14 13 13 12 11 12 9 8 10 10 13 18 18 13 13 10 11 11 11 11 10 11 14 9 9 8 6 6 5 4 3 1 1 2 3 3 2 2 2 4 4 5 5 4 3 4 5 5 5 6 7 7 7 7 8 8 8 9 10 10 10 11 11 12 13 14 14 14 15 15 16 16 16 16 17 16 15 16
13 14 13 13 13 15 16 16 14 15 16 16 17 16 15 15 13 11 15 15 10 11 11 12 11 11 10 10 10 11 14 10 10 11 7 7 6 4 4 4 4 4 4 3 4 3 3 2 3 4 3 4 4 3 4 5 5 6 6 6 6 7 7 7 8 8 8 8 9 10 10 13 14 14 14 14 14 15 15 16 16 16 16 16 16 16 15
8 11 13 13 13 14 16 16 15 13 13 15 15 13 12 11 14 10 5 9 11 10 11 12 13 13 10 8 6 7 5 8 7 8 6 6 5 5 5 6 6 6 4 4 3 3 1 1 3 5 4 3 4 4 5 8 5 5 6 6 6 6 7 7 7 7 8 8 9 10 11 11 10 11 13 12 13 14 15 15 16 16 15 15 15 15 15
12 13 14 14 12 9 10 12 9 8 10 11 9 10 14 14 11 11 11 13 13 12 12 11 10 10 10 9 8 10 8 8 8 8 7 8 6 9 7 6 5 4 2 2 2 0 0 2 4 3 2 3 3 4 5 8 8 6 5 5 5 6 6 6 7 7 8 7 9 9 9 10 11 11 12 12 13 14 15 15 15 15 15 15 14 14 14
9 10 10 12 9 10 11 8 4 6 10 16 15 9 5 10 11 10 11 11 10 11 15 15 13 14 14 12 9 9 10 10 9 9 9 8 8 7 6 4 3 2 1 1 1 0 1 2 2 2 2 3 4 5 5 6 8 5 4 4 5 5 5 6 6 7 7 8 7 8 9 10 10 11 12 12 13 13 14 16 16 16 14 14 14 14 13
11 10 12 11 10 12 10 10 8 9 8 8 12 14 12 15 14 13 12 12 11 13 12 11 14 11 12 14 15 12 12 11 10 9 9 8 6 5 1 2 4 4 3 2 1 1 2 4 3 3 3 2 3 3 4 6 7 5 4 4 4 4 5 5 5 6 6 7 8 9 8 9 9 10 11 12 12 13 13 13 14 14 14 13 12 12 10
10 9 4 6 9 5 8 9 8 4 3 5 7 8 13 18 15 15 17 19 14 11 12 12 13 11 13 15 13 10 11 10 9 8 8 7 6 4 4 4 4 4 2 1 2 2 3 3 3 3 2 2 2 4 4 7 5 4 4 4 4 4 4 4 4 5 6 6 7 7 8 8 9 10 10 11 12 12 12 13 13 13 12 12 12 10 9
7 2 4 6 7 7 6 4 3 5 4 2 5 10 13 13 14 15 12 10 13 13 12 9 6 12 10 10 10 11 11 9 9 7 9 7 5 6 4 3 3 2 1 2 2 2 2 2 3 3 2 2 3 5 7 6 4 4 4 4 4 4 4 4 4 4 5 6 6 6 7 8 8 8 9 10 10 11 12 12 12 12 12 11 11 10 9
3 4 6 6 5 5 5 6 7 7 6 4 5 5 7 8 9 11 11 10 10 10 9 8 8 9 12 14 14 13 10 9 9 7 5 5 5 3 0 3 3 1 1 1 1 2 2 2 2 1 3 4 5 8 9 5 3 3 3 4 5 4 4 4 4 4 4 5 5 6 7 7 7 7 9 9 9 9 10 11 11 12 12 11 11 11 10
3 4 5 5 6 4 4 5 5 7 10 6 4 5 6 6 7 11 13 13 11 9 10 10 9 11 13 13 12 8 6 6 6 4 3 2 1 6 6 2 0 1 2 2 2 3 2 2 1 3 6 7 8 8 5 4 4 3 3 4 4 4 4 4 4 3 4 5 5 6 6 7 7 7 7 8 9 9 9 9 10 10 11 11 10 10 9
4 4 4 4 4 5 5 7 9 10 7 7 7 6 5 6 6 7 10 11 10 11 8 9 9 8 8 7 7 5 5 5 4 6 6 4 4 4 4 3 2 1 2 3 3 3 2 2 3 6 7 8 8 8 4 3 3 3 3 3 3 3 3 3 3 4 5 5 5 5 6 6 7 7 7 7 8 8 9 9 9 9 10 10 10 10 10
1 1 3 5 5 5 2 4 5 9 10 9 8 5 5 6 8 8 6 10 11 10 9 9 7 7 7 8 6 7 7 4 2 3 1 1 1 0 4 4 2 2 4 5 3 3 2 5 6 7 7 8 8 5 4 3 3 3 3 3 3 4 3 2 3 4 4 4 5 5 5 5 6 6 6 7 7 7 8 9 9 8 8 8 8 9 8
2 2 2 3 3 4 6 7 8 9 8 9 9 8 6 6 7 7 7 6 8 10 9 7 6 6 6 6 7 6 6 4 1 2 3 2 1 0 2 1 2 3 4 3 2 2 2 3 4 7 8 8 8 4 4 3 2 2 3 3 3 3 3 3 3 3 4 4 5 6 7 6 5 6 7 7 6 6 7 8 8 8 8 8 8 8 9
4 4 4 5 6 5 7 8 9 8 7 7 6 7 7 6 6 5 6 8 10 9 7 5 6 7 6 6 4 3 1 3 6 3 3 3 2 2 1 0 1 3 5 5 6 5 6 7 8 8 8 8 5 3 3 3 3 4 4 3 3 4 4 4 3 3 5 5 5 5 5 5 5 5 5 6 6 6 6 6 6 7 7 8 7 8 8
6 6 5 5 7 7 8 8 7 6 5 5 8 6 6 7 7 6 5 7 8 7 5 6 7 6 4 4 3 1 1 2 2 3 2 3 3 1 1 1 3 4 4 3 3 3 5 7 7 8 9 7 3 3 3 3 4 4 4 4 4 4 4 4 4 4 5 5 5 5 5 6 6 6 6 7 7 6 7 7 6 6 6 7 7 7 6
5 5 5 5 6 7 8 9 7 5 5 5 6 6 6 7 6 4 4 4 5 5 5 4 3 3 3 2 1 1 1 1 2 1 1 1 2 1 2 1 2 4 5 4 3 4 4 6 7 7 6 3 3 3 4 4 4 4 4 4 4 4 4 5 6 7 6 6 5 5 5 6 6 6 7 6 7 7 7 7 7 8 11 8 6 6 6
4 4 4 4 4 3 2 1 2 4 6 6 5 5 6 5 5 6 5 6 7 6 5 4 3 2 2 2 2 1 1 0 1 1 0 0 0 2 3 2 3 3 4 4 4 4 3 2 3 4 4 4 4 4 4 4 4 4 4 4 4 4 4 4 4 4 4 5 5 5 6 6 6 6 6 6 6 6 6 7 7 7 6 6 6 6 6
3 2 3 3 4 4 5 5 5 5 5 6 5 6 4 4 5 4 4 2 3 4 5 6 4 2 2 2 3 2 1 0 0 1 1 2 2 3 4 4 4 4 4 4 5 4 4 5 5 5 6 4 4 5 5 6 5 4 4 5 4 4 4 5 4 4 5 5 5 5 5 6 6 6 6 6 6 6 7 6 6 7 7 7 7 7 7
Wind_Direction
193 34 133 154 163 199 192 191 163 159 176 172 188 212 220 123 204 227 234 163 219 220 174 208 198 184 186 191 191 189 182 158 140 146 163 170 172 166 162 153 143 140 138 126 112 87 63 46 51 21 317 333 17 48 49 28 17 17 5 12 20 21 19 21 12 360 352 350 343 344 338 339 341 340 333 328 325 320 321 318 313 315 313 314 313 310 307
166 79 115 269 176 144 152 176 178 182 159 186 199 213 212 195 218 228 111 177 219 203 184 201 206 204 194 181 132 98 143 177 173 173 180 181 171 169 167 162 154 142 131 134 119 108 69 66 66 290 292 316 23 46 44 26 19 15 4 15 15 13 20 13 359 354 347 350 347 343 349 346 344 338 335 334 330 328 325 323 318 315 313 306 304 305 307
207 107 43 62 11 153 181 178 176 173 183 196 205 214 221 218 240 241 149 260 254 219 132 216 218 143 62 90 167 184 189 171 178 187 187 174 174 176 163 156 155 149 146 147 146 162 168 182 206 234 244 246 163 79 55 35 26 11 1 8 16 15 16 6 355 348 349 350 341 343 342 335 334 332 329 326 320 318 320 319 317 319 315 313 313 310 306
221 52 132 117 89 55 94 133 178 194 193 204 209 214 209 199 213 216 107 277 259 175 149 170 116 152 181 189 189 188 188 187 189 190 181 178 178 173 168 162 156 159 166 169 178 183 184 190 206 224 228 209 65 55 39 33 18 354 2 15 19 20 12 360 360 354 346 340 337 335 337 336 327 320 311 307 310 313 313 317 319 313 308 309 309 308 303
211 33 120 134 114 103 250 228 209 202 204 204 204 2 60 207 204 209 186 230 232 115 171 179 188 193 204 210 191 187 202 199 190 188 182 179 173 174 166 165 167 169 170 174 174 165 178 197 202 208 263 39 52 32 25 18 356 3 10 22 19 23 11 5 0 350 344 341 334 333 334 328 318 310 310 307 314 322 320 318 307 311 313 312 308 309 305
139 20 162 152 141 217 224 223 216 176 194 194 167 199 214 216 197 212 213 241 79 165 175 189 192 197 204 205 206 191 192 178 185 195 187 179 168 158 157 160 162 162 155 154 156 171 185 184 176 77 45 41 38 30 18 2 10 8 17 19 21 16 7 7 352 344 339 331 326 324 321 322 326 324 326 326 324 315 307 311 311 308 312 310 311 315 315
143 166 182 154 216 228 229 18 142 192 182 151 194 215 211 206 207 225 243 245 191 191 190 197 207 204 229 238 214 187 196 181 177 180 182 175 166 165 161 159 159 155 152 154 163 171 155 123 80 61 59 44 31 58 47 29 22 15 33 3 24 10 354 356 343 338 330 326 324 326 329 328 327 325 323 320 317 322 319 316 315 317 316 316 312 308 305
73 129 175 214 223 224 350 252 53 343 154 197 202 241 238 217 209 211 230 234 204 183 203 196 51 100 158 247 268 234 162 198 183 171 184 171 166 163 161 155 152 154 162 161 154 136 131 108 76 56 45 33 52 76 81 45 40 150 259 20 21 3 354 355 350 343 340 338 336 335 333 330 327 326 325 324 321 323 315 308 303 296 294 286 286 294 293
178 180 198 233 9 314 195 228 205 169 167 157 177 218 240 208 200 200 221 234 206 168 194 140 82 102 107 234 248 165 182 201 221 197 166 157 150 132 130 137 141 143 143 139 131 127 110 80 72 48 32 37 89 120 91 55 10 7 23 27 11 1 357 353 352 350 349 346 339 337 336 333 331 330 330 326 323 326 316 308 301 298 292 290 285 288 289
173 151 193 243 241 253 237 199 62 161 139 171 185 204 252 212 198 197 209 223 201 155 147 174 127 142 169 233 241 174 185 190 149 80 97 98 110 119 123 121 130 136 131 119 114 111 101 81 58 40 23 35 104 82 50 25 16 29 30 20 5 360 355 354 349 349 350 348 341 336 334 333 324 319 315 306 306 314 308 307 303 296 295 294 284 272 279
139 185 198 201 210 233 41 155 182 168 174 145 121 177 256 211 174 191 200 216 171 165 174 166 150 147 207 228 222 150 160 149 144 126 119 121 120 128 136 143 137 132 125 116 112 102 87 72 49 34 23 29 86 71 43 22 28 30 23 9 3 356 349 346 344 344 341 339 335 329 324 320 320 314 314 312 307 310 306 303 295 298 298 296 291 286 263
194 191 207 220 203 246 192 178 177 169 145 132 137 205 248 181 144 194 192 189 169 190 196 147 175 182 217 223 210 142 135 134 135 134 137 132 128 119 115 98 106 113 120 118 102 84 70 58 39 24 6 80 71 54 30 32 34 26 12 0 348 342 338 337 336 335 333 329 324 326 319 311 309 304 305 307 308 311 306 303 300 302 301 296 294 291 288
198 198 236 290 272 256 212 202 151 148 169 155 176 210 223 158 187 180 173 187 197 197 171 160 181 215 220 342 103 127 130 123 117 100 105 115 122 127 124 123 120 110 107 100 93 82 68 47 36 19 13 45 45 36 28 36 34 17 358 346 341 336 332 328 327 326 325 324 319 314 311 309 307 301 302 306 307 307 304 303 300 298 297 293 289 286 285
196 197 212 225 291 229 158 17 131 191 138 203 213 192 357 170 157 175 183 190 201 180 170 183 204 121 75 116 100 119 134 128 125 124 120 113 101 92 100 113 121 118 114 105 98 82 62 51 42 29 27 51 43 32 32 35 21 2 349 343 337 332 326 322 317 315 315 315 312 308 309 309 311 306 302 295 293 298 301 298 297 296 297 294 292 289 289
194 184 218 217 242 196 117 117 96 301 214 245 101 107 360 11 130 149 201 207 176 157 185 195 123 124 117 129 137 124 126 129 136 138 138 135 133 131 126 106 91 117 111 100 86 83 69 57 49 34 42 49 40 31 34 21 6 352 343 338 331 324 317 312 312 311 312 313 314 315 311 310 308 304 303 303 298 293 289 291 290 294 293 287 284 284 285
181 187 199 210 264 93 177 147 188 188 219 98 191 114 124 169 206 189 165 217 189 197 174 158 141 131 126 120 128 126 121 121 124 124 115 111 108 103 93 93 93 99 103 102 101 84 70 52 46 37 37 44 32 29 16 7 354 341 335 327 317 310 307 306 310 310 311 309 306 306 304 305 302 296 299 301 299 295 297 295 296 296 296 299 298 294 295
200 202 217 185 193 166 204 175 8 197 198 81 168 184 65 154 218 201 243 198 175 194 157 141 141 147 163 152 155 145 150 136 136 134 134 128 125 118 112 96 81 75 86 92 88 76 61 50 43 41 36 38 25 22 354 355 337 330 323 320 317 311 309 309 309 311 310 309 306 308 309 308 307 307 302 304 304 301 303 300 294 293 291 294 294 296 298
337 319 229 310 330 267 220 92 63 332 337 57 130 184 195 239 196 178 184 166 163 162 150 134 161 152 154 142 148 127 133 134 120 117 113 108 106 108 106 94 74 81 85 81 80 79 63 52 42 38 31 27 22 343 343 332 324 320 322 322 317 313 312 313 313 314 314 311 309 313 312 307 298 295 298 302 300 300 299 294 293 291 293 294 292 292 293
172 237 213 230 226 190 220 206 171 285 300 235 173 209 221 258 184 190 15 171 159 155 154 150 152 152 157 144 139 138 132 138 140 138 131 124 120 115 99 90 99 85 84 73 62 65 62 43 40 23 22 13 357 329 313 317 317 323 326 324 315 316 319 318 318 318 320 320 321 318 318 315 308 301 300 296 295 292 289 291 291 289 286 285 288 290 291
203 240 210 227 321 79 215 241 216 247 239 225 215 305 356 356 29 74 97 120 115 136 164 166 149 155 159 151 153 154 150 145 145 137 132 128 115 97 94 91 85 85 74 73 56 48 49 38 36 19 4 348 326 310 304 312 328 337 324 318 320 318 320 319 320 322 318 318 318 314 314 314 309 305 300 295 293 288 291 291 294 292 290 286 284 285 290
264 312 270 260 298 263 208 197 239 241 228 209 171 109 125 129 120 118 106 25 173 179 168 151 140 141 169 159 151 145 140 137 138 139 128 122 115 115 103 80 72 76 76 69 58 43 26 25 19 356 334 314 315 314 332 3 348 331 323 324 320 320 320 321 319 321 316 312 313 311 308 306 296 291 294 295 291 288 279 276 276 282 288 285 281 282 282
222 223 216 130 176 239 233 211 214 211 178 165 154 143 162 178 160 156 132 100 43 40 80 162 158 147 151 155 148 139 144 142 134 128 124 117 114 105 99 93 90 77 74 76 59 40 3 10 347 318 321 325 342 19 9 341 337 341 334 328 323 322 319 317 311 316 313 309 304 305 304 303 303 297 281 276 275 279 287 285 278 273 274 276 280 285 282
228 242 299 173 243 275 252 344 35 153 175 168 176 198 190 185 174 161 141 129 114 130 108 102 168 155 147 154 147 135 141 137 123 123 128 129 124 120 114 109 94 89 91 85 94 35 305 348 319 322 329 342 15 353 340 339 344 342 338 329 322 318 321 317 314 311 304 301 299 295 291 292 295 298 302 295 278 272 271 278 284 283 276 273 275 275 275
6 54 41 159 171 248 339 3 341 152 176 184 205 203 154 178 177 184 196 178 149 146 130 109 141 158 134 141 146 132 115 114 119 115 105 105 110 112 109 107 118 120 136 144 170 231 312 320 299 300 330 346 346 330 334 339 348 340 333 327 321 318 315 311 309 307 301 298 298 295 293 290 291 293 294 298 300 284 269 264 271 280 283 280 275 274 276
281 88 94 244 264 338 42 308 4 259 189 207 198 200 191 182 181 184 178 186 296 153 152 156 107 136 143 135 141 135 137 131 122 120 116 113 113 116 115 112 122 146 158 168 177 223 224 244 256 311 322 305 324 328 337 347 335 336 333 331 320 311 306 302 302 302 299 296 295 295 295 296 295 293 292 294 295 303 304 291 278 272 275 280 282 278 274
263 142 132 126 78 46 335 284 222 195 198 199 196 165 121 142 141 136 112 93 133 3 144 138 137 129 140 131 127 115 107 119 125 121 122 123 122 119 121 139 159 153 173 179 184 208 210 179 283 285 297 296 316 326 341 343 342 339 329 321 308 300 301 302 300 297 296 295 295 294 291 289 288 291 289 286 289 293 298 306 309 298 277 271 277 283 284
207 180 139 47 268 229 182 203 291 172 176 170 148 108 83 83 91 78 53 54 51 69 100 94 98 115 96 82 101 96 121 123 112 110 114 122 129 136 141 144 164 173 177 194 190 195 129 301 305 295 300 296 318 334 340 342 340 330 320 312 307 296 293 293 292 292 293 293 293 293 293 292 292 292 291 291 291 290 290 293 295 297 302 297 287 281 284
207 205 193 229 256 250 255 244 64 62 116 142 141 124 113 98 102 115 115 106 93 86 81 83 128 130 123 127 125 114 103 118 129 133 131 141 134 131 147 167 176 185 192 187 184 144 147 294 308 317 304 308 333 335 342 348 333 320 313 309 303 297 294 292 288 288 289 290 290 291 292 292 291 290 290 291 290 288 288 286 285 290 292 290 294 292 288
228 187 175 268 264 321 347 26 87 124 126 87 93 110 138 142 164 159 168 162 144 133 131 128 84 67 108 132 125 124 136 139 140 149 147 141 143 157 157 172 181 195 190 175 149 269 360 339 342 332 306 312 332 345 344 334 323 315 314 311 306 300 297 296 295 292 289 288 286 285 287 289 290 291 289 288 287 287 288 287 288 288 287 293 297 297 293
242 104 182 212 157 118 130 209 203 182 158 158 157 179 193 164 163 192 170 154 164 163 148 128 128 129 124 121 130 135 148 153 148 140 141 148 150 155 156 154 137 160 156 158 195 3 343 317 302 285 284 302 347 334 326 315 310 292 288 290 288 293 294 295 295 293 293 290 288 291 289 287 287 290 292 292 290 288 287 287 288 289 291 293 294 294 298
162 185 208 231 163 166 209 232 162 161 149 181 181 172 208 244 217 149 170 168 168 157 152 154 135 123 137 135 119 113 111 124 133 142 143 147 149 158 158 175 172 181 177 181 197 227 236 251 257 261 287 338 322 313 309 306 311 305 299 302 298 291 292 295 295 295 294 295 296 295 293 290 291 293 292 292 292 291 290 289 290 290 290 289 289 291 294
136 167 208 242 249 243 248 209 172 190 185 178 174 204 198 185 190 199 187 184 195 162 146 154 167 168 148 135 134 133 133 131 132 135 144 149 157 151 166 179 182 183 191 210 227 222 222 245 259 263 282 308 298 300 300 303 314 312 309 306 303 302 301 301 300 298 297 295 296 296 293 295 294 293 292 292 291 292 293 293 291 291 290 290 292 293 296
166 215 273 258 276 284 255 234 201 213 185 187 208 209 201 208 215 198 187 170 138 160 171 171 151 142 147 146 141 142 134 130 130 139 155 167 166 168 181 185 193 201 217 227 214 223 215 223 247 289 295 284 284 278 276 282 304 307 305 304 300 299 299 301 298 301 298 295 294 293 294 294 294 293 290 290 291 292 292 290 291 291 290 289 288 288 289
194 215 224 216 200 209 220 230 216 217 215 222 223 212 207 210 208 185 162 160 164 155 181 169 152 149 148 152 151 148 148 143 154 176 184 173 172 171 188 191 186 207 232 235 231 225 208 211 240 281 279 275 269 280 295 305 310 300 293 293 299 300 303 303 306 301 299 298 298 298 297 293 293 293 293 294 293 291 290 291 290 291 290 289 288 289 289
211 219 224 227 217 220 222 223 213 206 207 206 212 214 216 204 186 191 170 167 182 179 140 125 143 151 148 150 156 164 178 182 159 146 164 164 170 175 181 166 172 169 238 234 211 212 194 194 247 260 266 266 275 295 305 299 286 289 285 292 294 298 297 300 300 302 302 300 302 302 302 302 301 299 296 294 293 292 291 290 290 290 290 291 292 293 292
215 225 233 235 228 222 225 228 223 206 202 206 208 206 201 199 187 169 179 187 147 133 148 152 149 147 156 166 169 178 175 163 143 143 154 162 167 157 145 148 164 156 164 189 217 184 219 238 274 309 318 317 322 313 292 290 287 291 295 297 296 296 296 295 296 300 302 305 307 307 308 307 305 302 303 302 299 297 295 294 293 293 292 292 295 297 297
237 237 238 238 235 229 228 229 226 214 206 209 212 205 198 190 192 188 138 129 148 151 147 143 147 166 180 175 144 122 137 149 155 164 164 155 151 140 154 167 191 179 174 149 184 153 266 292 295 325 334 317 306 292 287 302 312 310 302 298 296 297 301 304 307 309 309 312 311 312 311 312 313 312 310 308 304 303 302 299 298 297 295 294 295 295 296
219 216 231 239 244 254 255 249 255 243 223 221 217 207 199 189 173 163 168 152 145 152 154 158 150 133 127 125 137 155 155 154 152 161 154 143 151 139 174 177 180 175 170 147 127 85 288 304 304 317 310 297 287 283 291 302 308 306 296 296 297 299 299 302 308 311 312 312 316 314 315 317 318 317 315 312 309 308 306 305 303 301 299 298 295 293 292
234 223 228 237 238 242 248 261 243 215 204 208 208 187 162 150 148 143 152 166 162 140 137 142 138 138 143 146 155 156 165 167 168 166 157 161 170 172 180 183 175 162 109 100 80 266 305 295 309 307 286 277 275 271 282 302 313 303 292 291 296 295 296 302 305 308 310 316 318 322 322 321 320 318 319 318 315 311 309 308 307 305 304 302 302 300 301
236 227 222 222 228 232 233 236 227 221 220 210 182 182 173 151 159 159 155 148 164 165 158 143 149 152 160 157 156 164 169 163 170 167 162 156 156 169 207 270 252 253 259 219 248 248 257 270 281 274 269 268 286 308 307 311 313 299 293 295 292 294 298 299 303 307 311 318 319 321 321 321 320 322 322 323 319 317 316 316 313 311 310 312 313 316 317
238 243 230 204 230 226 223 226 224 219 201 184 186 163 155 157 146 150 169 162 159 164 164 163 153 143 164 169 163 149 137 145 164 172 147 131 138 177 158 165 168 153 208 230 223 230 246 252 257 268 270 298 300 303 306 309 305 295 296 292 292 292 293 300 305 310 315 320 321 322 320 322 323 323 328 329 327 325 322 318 316 316 317 318 320 321 322
262 234 208 215 225 219 218 200 150 155 209 161 145 134 141 152 161 158 143 127 128 138 143 143 154 154 150 140 125 116 126 150 154 157 172 182 169 156 147 155 143 154 217 225 252 253 249 245 241 262 286 299 291 285 299 299 289 293 291 289 289 285 288 295 300 304 313 312 313 316 321 323 321 323 327 331 332 333 329 324 321 321 323 322 324 329 331
277 227 228 225 223 203 188 183 194 188 125 80 96 129 134 138 130 124 135 145 146 146 145 139 134 130 127 127 133 137 147 143 147 150 167 244 254 276 37 132 132 142 264 249 241 242 248 240 249 252 282 283 280 292 296 287 285 277 281 283 284 290 297 305 311 308 311 312 314 320 318 317 318 323 327 330 332 328 329 328 327 327 328 328 330 332 334
242 225 218 210 210 191 171 179 158 140 130 141 122 124 133 128 136 144 147 151 151 150 146 144 143 139 135 137 138 147 155 161 160 160 154 185 222 247 229 230 202 264 277 255 237 247 251 256 261 281 281 279 284 288 283 279 283 272 269 278 286 293 298 299 301 306 310 316 316 318 316 314 315 317 322 325 325 326 326 327 328 330 332 331 333 334 336
220 217 209 200 171 155 180 175 174 162 126 117 125 135 132 135 134 142 141 144 145 148 141 140 144 149 151 160 160 147 147 159 148 152 145 159 165 206 175 177 215 251 257 258 257 254 260 262 280 282 284 290 290 287 275 268 269 268 273 276 277 278 283 290 296 302 303 302 301 306 308 308 310 315 320 319 321 323 326 325 324 327 331 336 339 340 340
174 119 129 138 164 182 168 147 123 104 120 126 115 104 119 132 143 143 140 146 145 151 152 153 146 150 145 141 117 98 88 98 139 267 353 42 123 113 117 151 199 232 271 272 258 259 258 277 284 286 290 290 292 281 264 277 274 267 268 271 273 277 280 288 292 290 293 295 302 303 306 305 308 308 310 312 315 316 316 319 319 326 334 333 334 335 337
96 83 108 130 105 97 107 116 128 132 133 138 145 151 151 148 147 149 142 136 129 136 139 138 134 133 136 141 143 141 143 141 191 219 200 220 180 290 115 134 270 274 273 261 262 268 284 298 293 291 290 291 292 278 282 282 273 276 278 283 282 281 287 286 289 288 291 291 292 296 295 293 295 297 299 304 307 315 319 321 323 327 330 333 332 335 338
93 106 109 120 122 122 126 136 151 166 177 171 135 121 134 134 124 120 126 114 105 100 101 108 110 91 99 100 80 40 40 145 146 182 171 156 184 189 204 225 257 272 282 279 276 279 287 287 286 287 290 295 288 280 287 289 294 294 289 283 285 290 289 299 294 296 298 295 299 302 305 302 299 298 299 303 305 305 307 312 315 321 327 331 331 332 333
123 131 132 132 137 147 151 160 166 170 168 117 120 135 132 126 121 118 117 110 109 104 104 98 96 91 81 78 95 103 111 352 8 103 99 147 173 179 237 271 285 288 279 264 270 276 281 284 287 293 296 294 286 290 290 286 283 280 277 280 280 282 287 291 293 294 296 296 295 294 292 291 294 299 302 303 304 306 309 307 304 310 320 320 318 322 323
127 131 143 160 162 167 171 173 181 170 127 137 147 142 150 146 132 145 144 129 124 115 124 129 138 132 126 122 112 95 79 88 102 118 127 145 173 230 259 265 266 262 266 273 279 276 275 283 291 290 286 276 276 276 274 273 265 263 267 270 277 282 275 285 287 287 287 287 288 286 289 291 295 295 295 297 299 300 301 301 304 303 305 304 305 308 313
164 173 174 172 160 152 137 37 61 99 140 143 126 137 154 149 130 131 135 136 138 130 136 130 135 139 154 155 153 144 76 100 71 26 26 296 278 283 279 268 269 272 283 278 269 273 282 278 267 265 263 260 259 260 259 258 263 268 271 275 276 281 286 287 288 288 282 286 290 289 288 291 291 292 293 294 300 301 303 305 306 308 311 307 305 304 304
43 50 63 63 57 60 65 64 78 104 116 121 141 153 143 116 126 113 110 99 136 141 140 138 144 182 149 161 163 151 130 121 45 355 319 289 275 265 268 273 270 271 267 266 270 268 265 265 262 261 265 263 263 269 261 263 265 267 270 271 276 277 275 282 283 282 282 284 286 285 287 291 294 295 292 295 296 296 298 300 302 306 306 305 303 302 301